Home > Weather > Filderstadt > Past weeks

Flag for Germany Past Weather in Filderstadt, Baden-Württemberg, Germany — Yesterday and Last 2 Weeks

Now
63 °F

Scattered clouds.


Feels Like: 63 °F
Forecast: 49 / 67 °F
Wind: 6 mph from North

Location: Stuttgart-Echterdingen

Current Time: May 31, 2016 at 9:56:40 PM

Latest Report: May 31, 2016 at 9:20 PM


Visibility: N/A

Pressure: 29.92 "Hg

Humidity: 68%

Dew Point: 52 °F

Location of FilderstadtLocation

Past Weather in Filderstadt — Graph

°F

Filderstadt Temperature Yesterday

Maximum temperature yesterday: 66 °F (at 2:50 PM)
Minimum temperature yesterday: 57 °F (at 12:20 AM)
Average temperature yesterday: 61 °F

High & Low Weather Summary for the Past Weeks

 TemperatureHumidityPressure
High81 °F (May 22, 3:50 PM)100% (May 17, 4:50 AM)30.15 "Hg (May 17, 4:50 AM)
Low43 °F (May 17, 1:20 AM)34% (May 22, 1:50 PM)29.65 "Hg (May 30, 12:50 AM)
Average58 °F76%29.93 "Hg
* Reported May 16 8:20 PM — May 31 8:50 PM, Filderstadt, Weather by CustomWeather, © 2016

Note: Actual official high and low records may vary slightly from our data, if they occured in-between our weather recording intervals... More about our weather records

Advertising

Filderstadt Weather History for the Previous 24 Hours

Scroll right to see more
 ConditionsComfort  
Time TempWeatherWind HumidityBarometerVisibility
8:50 PM
Tue, May 31
63 °FPartly sunny.6 mph68%29.92 "HgN/A
8:20 PM63 °FScattered showers. Broken clouds.6 mph73%29.89 "HgN/A
7:50 PM63 °FScattered showers. Broken clouds.8 mph77%29.89 "HgN/A
7:20 PM66 °FBroken clouds.7 mph64%29.89 "HgN/A
6:50 PM66 °FPassing clouds.5 mph60%29.89 "HgN/A
6:20 PM68 °FSunny.5 mph53%29.86 "Hg10 mi
5:50 PM68 °FPassing clouds.5 mph53%29.86 "HgN/A
5:20 PM70 °FPassing clouds.6 mph50%29.86 "HgN/A
4:50 PM68 °FSunny.9 mph53%29.86 "Hg10 mi
4:20 PM68 °FSunny.10 mph53%29.86 "Hg10 mi
3:50 PM70 °FPassing clouds.7 mph50%29.86 "HgN/A
3:20 PM70 °FPassing clouds.6 mph50%29.86 "HgN/A
2:50 PM68 °FPassing clouds.7 mph53%29.86 "HgN/A
2:20 PM68 °FSunny.7 mph53%29.86 "Hg10 mi
1:50 PM68 °FPassing clouds.6 mph53%29.86 "HgN/A
1:20 PM68 °FScattered clouds.5 mph56%29.86 "HgN/A
12:50 PM66 °FScattered clouds.7 mph56%29.86 "HgN/A
12:20 PM64 °FPartly sunny.9 mph60%29.86 "HgN/A
11:50 AM66 °FPartly sunny.8 mph56%29.86 "HgN/A
11:20 AM63 °FScattered clouds.7 mph64%29.86 "HgN/A
10:50 AM63 °FScattered clouds.8 mph64%29.86 "HgN/A
10:20 AM63 °FScattered clouds.10 mph59%29.83 "HgN/A
9:50 AM63 °FScattered clouds.10 mph64%29.83 "HgN/A
9:20 AM63 °FPassing clouds.8 mph64%29.83 "HgN/A
8:50 AM61 °FPassing clouds.8 mph72%29.83 "HgN/A
8:20 AM59 °FPassing clouds.6 mph77%29.83 "HgN/A
7:50 AM57 °FPassing clouds.5 mph82%29.83 "HgN/A
7:20 AM57 °FPassing clouds.2 mph82%29.80 "HgN/A
6:50 AM55 °FPassing clouds.2 mph88%29.80 "HgN/A
6:20 AM54 °FPassing clouds.No wind94%29.80 "HgN/A
5:50 AM50 °FPassing clouds.1 mph94%29.80 "HgN/A
5:20 AM50 °FClear.2 mph94%29.80 "Hg10 mi
4:50 AM50 °FClear.1 mph94%29.80 "Hg10 mi
4:20 AM50 °FClear.2 mph94%29.80 "Hg10 mi
3:50 AM50 °FClear.2 mph88%29.80 "Hg10 mi
3:20 AM54 °FPassing clouds.3 mph88%29.80 "HgN/A
2:50 AM54 °FClear.2 mph82%29.80 "Hg10 mi
2:20 AM55 °FClear.No wind82%29.80 "Hg10 mi
1:50 AM55 °FClear.1 mph82%29.80 "Hg10 mi
1:20 AM55 °FPassing clouds.3 mph82%29.80 "HgN/A
12:50 AM55 °FPassing clouds.2 mph82%29.77 "HgN/A
12:20 AM57 °FPassing clouds.5 mph77%29.77 "HgN/A
11:50 PM
Mon, May 30
57 °FPassing clouds.5 mph77%29.77 "HgN/A
11:20 PM59 °FPassing clouds.5 mph72%29.77 "HgN/A
10:50 PM59 °FPassing clouds.3 mph77%29.77 "HgN/A
10:20 PM59 °FPassing clouds.3 mph77%29.80 "HgN/A
9:50 PM61 °FPassing clouds.5 mph72%29.80 "HgN/A
9:20 PM61 °FScattered clouds.7 mph72%29.77 "HgN/A
Weather by CustomWeather, © 2016

See weather overviewHow to use our weather pages